Weather in Huiva

Ukraine / Zhytomyr Region     50°12′38″N   28°39′30″E
temp.,
°C
wind,
m/s
gust,
m/s
humid.,
%
clouds,
%
prec.,
mm/h
press.,
hPa
HPBL,
m
22 april, thu
thu2200:00+7sw49809 0.0 1014146
03:00+6sw4108416 0.0 1015167
06:00+5sw49897 0.0 1015167
09:00+11sw510685 0.0 1015497
12:00+15sw685338 0.3 10151596
15:00+16sw71049100 1.4 10142298
18:00+13ssw496598 1.2 1013377
21:00+8nw4895100 3.0 1015183
23 april, fri
fri2300:00+8wnw6109154 1.6 1015512
03:00+6wnw4984100 1.7 1016501
06:00+4wnw3888100 0.1 1017364
09:00+6wnw5870100 0.1 1018584
12:00+8wnw4554100 0.0 10181310
15:00+11wnw6741100 0.0 10172278
18:00+8wnw6758100 0.3 10171265
21:00+5w387552 0.8 1018251
24 april, sat
sat2400:00+2w398366 0.0 1019175
03:00+2w49875 0.0 1018221
06:00+1nw71294100 0.1 1018775
09:00+3wnw811605 0.1 10201304
12:00+6nw794798 0.2 10202194
15:00+7wnw7943100 0.5 10202823
18:00+7wnw5104243 0.0 10202404
21:00+3wsw386818 0.1 1021135
25 april, sun
sun2500:00+1wsw48735 0.0 1021134
03:00+1wsw357615 0.0 102084
06:00+1sw387998 0.0 1020200
09:00+2wsw41198100 1.6 1020436
12:00+4wsw348991 1.1 1019516
15:00+7wnw6768100 1.7 10181294
18:00+7wnw575625 0.0 10181776
21:00+2wnw34732 0.1 101945
26 april, mon
mon2600:000w33743 0.0 101927
03:000wsw357997 0.0 101882
06:00+1sw378493 0.0 1017254
09:00+4wnw686822 0.1 1017819
12:00+6wnw7852100 0.8 10171887
15:00+7wnw7943100 1.0 10162402
18:00+7wnw684845 0.0 10162065
21:00+3w366421 0.0 101786